{"data":{"norad_id":63846,"intl_designator":"2025-093L","name":"STARLINK-34044","alt_names":[],"object_type":"PAYLOAD","status":"ACTIVE","operator":null,"country":"US","launch_date":"2025-05-07","launch_site_code":"AFETR","launch_vehicle":null,"mission":null,"orbit_class":"UNKNOWN","rcs_meters":null,"size_class":null,"mass_kg":null,"dimensions":null,"purposes":["comms"],"wikipedia_slug":null,"has_3d_model":false,"image_url":null,"decayed_at":null,"tle_current":{"epoch":"2026-09-20T17:28:48.342720Z","epoch_age_seconds":130171,"freshness":"FRESH","line1":"1 63846U 25093L   26263.72833730  .00015987  00000+0  58903-3 0  9995","line2":"2 63846  43.0012  56.1837 0001686 276.0362  84.0298 15.27589515 77582","mean_motion":15.27589515,"eccentricity":0.0001686,"inclination_deg":43.0012,"raan_deg":56.1837,"arg_perigee_deg":276.0362,"mean_anomaly_deg":84.0298,"bstar":0.00058903,"rev_number":7758,"period_min":94.266161547986,"perigee_km":481.86381368236,"apogee_km":484.17739602672,"semimajor_km":6861.1576048545,"source":"CELESTRAK","updated_at":"2026-09-21T09:00:35.133182Z"}}}